Location: ?????????
(54.7630°N, 39.4991°E)
Time: 10:45:01
(UTC+00:00)

Aureole 3 - Pass Details

Date: 14 April 2026
Orbit: 373 x 1024 km, 82.5° (Epoch: 19 May)

Event Time Altitude Azimuth Distance (km) Brightness Sun altitude
Rises 17:44:35 0° 350° (N) 2,696 7.6 -11.2°
Reaches altitude 10° 17:46:35 10° 354° (N) 1,890 6.7 -11.5°
Maximum altitude 17:50:44 62° 76° (ENE) 742 3.8 -11.9°
Enters shadow 17:55:04 14° 156° (SSE) 2,006 5.6 -12.4°
